AUA125 LKPR-LOWW

Flight info

Callsign AUA125
Flight time 0h 34m
Altitude 23000
Route VOZ DCT LANUX LANUX7W
Aircraft A320/M-SDE3FGHIRWY/LB1

Departure

Time 2026-04-22 19:47
Airport Václav Havel Airport Prague (LKPR)

Arrival

Time 2026-04-22 20:21
Airport Vienna International Airport (LOWW)
Time Latitude Longitude Altitude Speed Heading
2026-04-22 19:05 50.10485 14.26480 1174 ft 0 kts 34°
2026-04-22 19:29 50.10481 14.26476 1174 ft 4 kts 35°
2026-04-22 19:29 50.10461 14.26449 1170 ft 4 kts 62°
2026-04-22 19:29 50.10458 14.26420 1174 ft 1 kts 124°
2026-04-22 19:33 50.10429 14.26486 1170 ft 11 kts 124°
2026-04-22 19:33 50.10390 14.26575 1171 ft 9 kts 124°
2026-04-22 19:33 50.10347 14.26617 1172 ft 7 kts 189°
2026-04-22 19:33 50.10307 14.26578 1170 ft 8 kts 216°
2026-04-22 19:34 50.10271 14.26538 1172 ft 5 kts 216°
2026-04-22 19:34 50.10218 14.26559 1178 ft 11 kts 130°
2026-04-22 19:34 50.10175 14.26645 1175 ft 9 kts 126°
2026-04-22 19:34 50.10122 14.26756 1182 ft 16 kts 127°
2026-04-22 19:35 50.10068 14.26868 1189 ft 9 kts 127°
2026-04-22 19:35 50.10028 14.26951 1194 ft 13 kts 127°
2026-04-22 19:35 50.09980 14.27048 1198 ft 19 kts 127°
2026-04-22 19:35 50.09896 14.27225 1201 ft 12 kts 127°
2026-04-22 19:36 50.09849 14.27317 1203 ft 10 kts 131°
2026-04-22 19:36 50.09775 14.27432 1205 ft 17 kts 135°
2026-04-22 19:36 50.09698 14.27550 1206 ft 14 kts 136°
2026-04-22 19:36 50.09638 14.27645 1209 ft 12 kts 135°
2026-04-22 19:37 50.09555 14.27772 1211 ft 19 kts 136°
2026-04-22 19:37 50.09464 14.27911 1215 ft 17 kts 136°
2026-04-22 19:37 50.09411 14.27994 1215 ft 16 kts 135°
2026-04-22 19:37 50.09333 14.28115 1215 ft 15 kts 135°
2026-04-22 19:38 50.09263 14.28222 1213 ft 14 kts 135°
2026-04-22 19:38 50.09180 14.28286 1211 ft 12 kts 182°
2026-04-22 19:38 50.09146 14.28263 1211 ft 0 kts 216°
2026-04-22 19:45 50.09143 14.28260 1211 ft 3 kts 216°
2026-04-22 19:45 50.09111 14.28220 1211 ft 9 kts 220°
2026-04-22 19:46 50.09071 14.28139 1209 ft 10 kts 262°
2026-04-22 19:46 50.09102 14.28048 1209 ft 10 kts 308°
2026-04-22 19:46 50.09226 14.27789 1211 ft 64 kts 306°
2026-04-22 19:46 50.09627 14.26953 1206 ft 126 kts 307°
2026-04-22 19:47 50.10247 14.25651 1265 ft 167 kts 306°
2026-04-22 19:47 50.10940 14.24176 1924 ft 168 kts 307°
2026-04-22 19:47 50.11645 14.22725 2624 ft 171 kts 307°
2026-04-22 19:47 50.12404 14.21171 2962 ft 191 kts 307°
2026-04-22 19:48 50.13249 14.19434 3263 ft 212 kts 308°
2026-04-22 19:48 50.14192 14.17494 3652 ft 236 kts 308°
2026-04-22 19:48 50.15208 14.15392 4341 ft 247 kts 309°
2026-04-22 19:48 50.16254 14.13215 4849 ft 254 kts 309°
2026-04-22 19:49 50.17299 14.11041 4979 ft 253 kts 309°
2026-04-22 19:49 50.18116 14.08581 5009 ft 257 kts 286°
2026-04-22 19:49 50.18139 14.05810 5014 ft 265 kts 260°
2026-04-22 19:49 50.17302 14.03164 5582 ft 280 kts 232°
2026-04-22 19:50 50.15757 14.01276 6506 ft 288 kts 205°
2026-04-22 19:50 50.13780 14.00714 7321 ft 295 kts 173°
2026-04-22 19:50 50.11865 14.01753 8163 ft 294 kts 142°
2026-04-22 19:50 50.10335 14.03850 9023 ft 293 kts 133°
2026-04-22 19:51 50.08861 14.06059 9825 ft 297 kts 132°
2026-04-22 19:51 50.07366 14.08308 10155 ft 299 kts 132°
2026-04-22 19:51 50.05862 14.10566 10274 ft 307 kts 132°
2026-04-22 19:51 50.04279 14.12942 10651 ft 326 kts 133°
2026-04-22 19:52 50.02585 14.15476 10891 ft 350 kts 133°
2026-04-22 19:52 50.00780 14.18158 11306 ft 363 kts 133°
2026-04-22 19:52 49.98940 14.20872 11957 ft 369 kts 133°
2026-04-22 19:52 49.97061 14.23632 12647 ft 373 kts 133°
2026-04-22 19:53 49.95174 14.26401 13359 ft 375 kts 133°
2026-04-22 19:53 49.93265 14.29202 14060 ft 378 kts 133°
2026-04-22 19:53 49.91347 14.32017 14747 ft 380 kts 132°
2026-04-22 19:53 49.89422 14.34846 15416 ft 382 kts 132°
2026-04-22 19:54 49.87486 14.37691 16013 ft 384 kts 132°
2026-04-22 19:54 49.85543 14.40543 16222 ft 384 kts 132°
2026-04-22 19:54 49.83626 14.43351 16288 ft 384 kts 132°
2026-04-22 19:54 49.81677 14.46206 16843 ft 387 kts 132°
2026-04-22 19:55 49.79717 14.49075 17456 ft 389 kts 132°
2026-04-22 19:55 49.77743 14.51962 18042 ft 391 kts 132°
2026-04-22 19:55 49.75757 14.54864 18604 ft 393 kts 132°
2026-04-22 19:55 49.73765 14.57767 19148 ft 395 kts 132°
2026-04-22 19:56 49.71753 14.60688 19671 ft 398 kts 132°
2026-04-22 19:56 49.69731 14.63620 20190 ft 401 kts 132°
2026-04-22 19:56 49.67693 14.66573 20695 ft 403 kts 132°
2026-04-22 19:56 49.65646 14.69534 21178 ft 405 kts 132°
2026-04-22 19:57 49.63587 14.72510 21652 ft 407 kts 132°
2026-04-22 19:57 49.61512 14.75517 22116 ft 409 kts 132°
2026-04-22 19:57 49.59430 14.78532 22570 ft 411 kts 132°
2026-04-22 19:57 49.57335 14.81558 23001 ft 414 kts 132°
2026-04-22 19:58 49.55227 14.84598 23212 ft 415 kts 132°
2026-04-22 19:58 49.53075 14.87635 23252 ft 428 kts 135°
2026-04-22 19:58 49.50685 14.90488 23259 ft 435 kts 138°
2026-04-22 19:58 49.48276 14.93323 23262 ft 437 kts 137°
2026-04-22 19:59 49.45934 14.96268 23259 ft 435 kts 135°
2026-04-22 20:00 49.32478 15.14915 23245 ft 436 kts 134°
2026-04-22 20:00 49.30206 15.17982 23247 ft 436 kts 134°
2026-04-22 20:01 49.27925 15.21043 23252 ft 436 kts 134°
2026-04-22 20:01 49.25646 15.24103 23244 ft 436 kts 134°
2026-04-22 20:01 49.23367 15.27171 23240 ft 436 kts 134°
2026-04-22 20:01 49.21099 15.30227 23241 ft 435 kts 134°
2026-04-22 20:02 49.18823 15.33290 23237 ft 435 kts 134°
2026-04-22 20:02 49.16550 15.36348 23233 ft 435 kts 134°
2026-04-22 20:02 49.14274 15.39409 23228 ft 436 kts 134°
2026-04-22 20:02 49.12001 15.42461 23224 ft 436 kts 134°
2026-04-22 20:03 49.09722 15.45511 23218 ft 436 kts 134°
2026-04-22 20:03 49.07434 15.48565 23218 ft 436 kts 134°
2026-04-22 20:03 49.05159 15.51618 23220 ft 436 kts 133°
2026-04-22 20:03 49.02926 15.54741 23217 ft 435 kts 132°
2026-04-22 20:04 49.00734 15.57920 23217 ft 435 kts 131°
2026-04-22 20:04 48.98563 15.61128 23217 ft 435 kts 131°
2026-04-22 20:04 48.96398 15.64342 23217 ft 435 kts 131°
2026-04-22 20:04 48.94219 15.67557 23220 ft 436 kts 131°
2026-04-22 20:05 48.92033 15.70755 23220 ft 436 kts 131°
2026-04-22 20:05 48.89844 15.73932 23220 ft 436 kts 132°
2026-04-22 20:05 48.87639 15.77116 23218 ft 436 kts 132°
2026-04-22 20:05 48.85436 15.80283 23215 ft 437 kts 132°
2026-04-22 20:06 48.83228 15.83450 23216 ft 437 kts 132°
2026-04-22 20:06 48.81021 15.86610 23218 ft 437 kts 132°
2026-04-22 20:06 48.78808 15.89780 23217 ft 437 kts 132°
2026-04-22 20:06 48.76601 15.92944 23215 ft 437 kts 132°
2026-04-22 20:07 48.74413 15.96082 23217 ft 437 kts 132°
2026-04-22 20:07 48.72202 15.99249 23215 ft 437 kts 132°
2026-04-22 20:07 48.69989 16.02416 23213 ft 437 kts 132°
2026-04-22 20:07 48.67798 16.05539 22877 ft 430 kts 132°
2026-04-22 20:08 48.65623 16.08633 22241 ft 426 kts 132°
2026-04-22 20:08 48.63472 16.11693 21612 ft 422 kts 132°
2026-04-22 20:08 48.61344 16.14719 20972 ft 419 kts 132°
2026-04-22 20:08 48.59225 16.17732 20338 ft 416 kts 132°
2026-04-22 20:09 48.57149 16.20681 19724 ft 413 kts 132°
2026-04-22 20:09 48.55038 16.23676 19100 ft 410 kts 133°
2026-04-22 20:09 48.52965 16.26609 18486 ft 407 kts 133°
2026-04-22 20:09 48.50928 16.29492 17887 ft 405 kts 133°
2026-04-22 20:10 48.48874 16.32394 17308 ft 402 kts 133°
2026-04-22 20:10 48.46835 16.35266 16737 ft 400 kts 133°
2026-04-22 20:10 48.44813 16.38111 16171 ft 397 kts 133°
2026-04-22 20:10 48.42797 16.40945 15616 ft 394 kts 133°
2026-04-22 20:11 48.40799 16.43757 15064 ft 392 kts 133°
2026-04-22 20:11 48.38819 16.46540 14506 ft 389 kts 133°
2026-04-22 20:11 48.36846 16.49312 13969 ft 386 kts 134°
2026-04-22 20:11 48.34889 16.52055 13413 ft 384 kts 134°
2026-04-22 20:12 48.32941 16.54781 12850 ft 382 kts 134°
2026-04-22 20:12 48.31001 16.57491 12103 ft 380 kts 134°
2026-04-22 20:12 48.29715 16.59287 11102 ft 383 kts 134°
2026-04-22 20:12 48.27103 16.62928 9867 ft 372 kts 135°
2026-04-22 20:13 48.25276 16.65463 9689 ft 343 kts 135°
2026-04-22 20:13 48.23569 16.67827 9224 ft 328 kts 135°
2026-04-22 20:13 48.21922 16.70117 8701 ft 317 kts 135°
2026-04-22 20:13 48.20329 16.72338 8138 ft 309 kts 135°
2026-04-22 20:14 48.18759 16.74537 7404 ft 308 kts 134°
2026-04-22 20:14 48.17200 16.76715 6680 ft 305 kts 134°
2026-04-22 20:14 48.15654 16.78872 5944 ft 303 kts 134°
2026-04-22 20:14 48.14113 16.81022 5222 ft 301 kts 134°
2026-04-22 20:15 48.12607 16.83128 4502 ft 298 kts 135°
2026-04-22 20:15 48.11135 16.85189 4189 ft 281 kts 135°
2026-04-22 20:15 48.09603 16.86900 3834 ft 268 kts 155°
2026-04-22 20:15 48.07866 16.87398 3704 ft 247 kts 187°
2026-04-22 20:16 48.06322 16.86616 3571 ft 226 kts 220°
2026-04-22 20:16 48.05411 16.84906 3463 ft 199 kts 256°
2026-04-22 20:16 48.05216 16.82985 3337 ft 177 kts 273°
2026-04-22 20:16 48.05185 16.81206 3180 ft 166 kts 275°
2026-04-22 20:17 48.05173 16.79527 2810 ft 159 kts 275°
2026-04-22 20:17 48.05168 16.77888 2607 ft 157 kts 275°
2026-04-22 20:17 48.05174 16.76235 2605 ft 160 kts 275°
2026-04-22 20:17 48.05318 16.74619 2583 ft 154 kts 299°
2026-04-22 20:18 48.05821 16.73205 2609 ft 155 kts 299°
2026-04-22 20:18 48.06280 16.71744 2565 ft 156 kts 299°
2026-04-22 20:18 48.06747 16.70292 2431 ft 155 kts 299°
2026-04-22 20:18 48.07217 16.68846 2254 ft 154 kts 299°
2026-04-22 20:19 48.07686 16.67410 2055 ft 154 kts 298°
2026-04-22 20:19 48.08157 16.65967 1856 ft 155 kts 297°
2026-04-22 20:19 48.08609 16.64583 1651 ft 142 kts 297°
2026-04-22 20:19 48.09033 16.63290 1464 ft 136 kts 298°
2026-04-22 20:20 48.09306 16.62450 1360 ft 135 kts 297°
2026-04-22 20:20 48.09829 16.60768 1100 ft 134 kts 297°
2026-04-22 20:20 48.10104 16.59924 957 ft 133 kts 297°
2026-04-22 20:20 48.10656 16.58279 754 ft 134 kts 297°
2026-04-22 20:21 48.11069 16.57031 616 ft 130 kts 298°
2026-04-22 20:21 48.11315 16.56298 623 ft 100 kts 296°
2026-04-22 20:21 48.11548 16.55596 621 ft 51 kts 296°
2026-04-22 20:21 48.11664 16.55342 617 ft 21 kts 313°
2026-04-22 20:22 48.11765 16.55182 620 ft 21 kts 317°
2026-04-22 20:22 48.11857 16.55140 609 ft 0 kts 24°
2026-04-22 20:23 48.11875 16.55155 609 ft 6 kts 35°
2026-04-22 20:23 48.11883 16.55205 620 ft 4 kts 95°
2026-04-22 20:24 48.11875 16.55238 621 ft 3 kts 120°
2026-04-22 20:24 48.11868 16.55257 609 ft 3 kts 119°
2026-04-22 20:24 48.11839 16.55345 609 ft 13 kts 109°
2026-04-22 20:24 48.11901 16.55442 609 ft 18 kts
2026-04-22 20:25 48.12014 16.55508 616 ft 15 kts 27°